Regional Weather Roundup
Issued by NWS Nashville, TN

Home | Current Version | Previous Version | Text Only | Print | Product List | Glossary On
Versions: 1 2 3 4 5 6 7 8 9 10 11 12 13 14 15 16 17 18 19 20 21 22 23 24 25 26 27 28 29 30 31 32 33 34 35 36 37 38 39 40 41 42 43 44 45 46 47 48 49 50
000
ASUS44 KOHX 061015
RWROHX
MIDDLE TENNESSEE HOURLY WEATHER ROUNDUP
NATIONAL WEATHER SERVICE NASHVILLE TN
500 AM CDT WED MAY 06 2015

NOTE: "FAIR" INDICATES FEW OR NO CLOUDS BELOW 12,000 FEET WITH
NO SIGNIFICANT WEATHER AND/OR OBSTRUCTIONS TO VISIBILITY.

* THESE REPORTS ARE NOT UNDER NWS QUALITY CONTROL AND MAY NOT
  REPORT WEATHER SUCH AS PRECIPITATION AND FOG.


TNZ005>011-023>034-057-059-062>066-078-080-061100
...NORTHERN MIDDLE TENNESSEE...

CITY           SKY/WX    TMP DP  RH WIND       PRES   REMARKS
CLARKSVILLE    CLEAR     56  54  93 CALM      30.17S
CROSSVILLE     CLOUDY    64  54  69 CALM      30.25S
LIVINGSTON     MOCLDY    68  53  58 S3        30.22
NASHVILLE      PTCLDY    62  57  83 CALM      30.18F
PORTLAND       PTCLDY    59  55  88 CALM      30.18S
ROCKWOOD       MOCLDY    63  53  69 SW5       30.23F
SMYRNA         CLEAR     59  58  96 CALM      30.20R
SPARTA         MOCLDY    63  57  82 CALM      30.20S
$$
TNZ056-058-060-061-075>077-079-093>097-061100
...SOUTHERN MIDDLE TENNESSEE...

CITY           SKY/WX    TMP DP  RH WIND       PRES   REMARKS
COLUMBIA       CLEAR     54  54 100 CALM      30.17S
LEWISBURG      PTCLDY    53  51  93 CALM      30.19S
MCMINNVILLE    MOCLDY    61  61 100 CALM      30.21S
SHELBYVILLE    CLOUDY    61  59  94 CALM      30.20S
TULLAHOMA      PTCLDY    57  54  88 CALM      30.21S
WINCHESTER     CLEAR     59  54  82 CALM      30.21S
$$


...KEY TO REMARKS...
VSB - VISIBILITY IN MILES
WCI - WIND CHILL INDEX
HX  - HEAT INDEX



USA.gov is the U.S. government's official web portal to all federal, state and local government web resources and services.